Roswell, NM

1:51 PM MST on December 13, 2017 (GMT -0700)
Roswell Industrial

Weather History for KROW - July, 2012

Change the Weather History Date:

Sunday, July 1, 2012

  Actual Average Record
Temperature  
Mean Temperature 85 °F 80 °F  
Max Temperature 98 °F 95 °F 108 °F (1957)
Min Temperature 72 °F 66 °F 55 °F (1895)
Degree Days  
Heating Degree Days 0 0  
Month to date heating degree days 0 0  
Since 1 June heating degree days 0 1  
Since 1 July heating degree days 0 0  
Cooling Degree Days 20 15  
Month to date cooling degree days 20 15  
Year to date cooling degree days 943 637  
Since 1 June cooling degree days 570 412  
Growing Degree Days 36 (Base 50)    
Moisture  
Dew Point 51 °F    
Average Humidity 36    
Maximum Humidity 54    
Minimum Humidity 18    
Precipitation  
Precipitation 0.00 in 0.08 in 1.40 in (2010)
Month to date precipitation 0.00 0.08  
Year to date precipitation 2.05 4.98  
Sea Level Pressure  
Sea Level Pressure 29.76 in    
Wind  
Wind Speed 10 mph (SSE)    
Max Wind Speed 21 mph    
Max Gust Speed 30 mph    
Visibility 10 miles    
Events      
T = Trace of Precipitation, MM = Missing Value Source: NWS Daily Summary

Daily Weather History Graph

Daily Weather History Graph

Search for Another Location

Airport or City:

Trip Planner

Search our weather history database for the weather conditions in past years. The results will help you decide how hot, cold, wet, or windy it might be!

Date:

Astronomy

Jul. 01, 2012 Rise Set
Actual Time 5:52 AM MDT 8:11 PM MDT
Civil Twilight 5:23 AM MDT 8:40 PM MDT
Nautical Twilight 4:48 AM MDT 9:15 PM MDT
Astronomical Twilight 4:10 AM MDT 9:53 PM MDT
Moon 6:18 PM MDT (7/1) 3:40 AM MDT (7/1)
Length of Visible Light 15h 16m
Length of Day
14h 18m
Waxing Gibbous, 94% of the Moon is Illuminated
Jul 1
Waxing Gibbous
Jul 3
Full
Jul 10
Last Quarter
Jul 18
New
Jul 26
First Quarter

Hourly Weather History & Observations

Time (MDT) Temp. Heat Index Dew Point Humidity Pressure Visibility Wind Dir Wind Speed Gust Speed Precip Events Conditions
12:51 AM 82.9 °F - 52.0 °F 34% 29.71 in 10.0 mi NE 8.1 mph - N/A   Clear
1:51 AM 81.0 °F 80.4 °F 53.1 °F 38% 29.70 in 10.0 mi Calm Calm - N/A   Clear
2:51 AM 77.0 °F - 50.0 °F 39% 29.91 in 10.0 mi SW 4.6 mph - N/A   Clear
3:51 AM 73.9 °F - 48.9 °F 41% 29.71 in 10.0 mi West 3.5 mph - N/A   Clear
4:51 AM 73.0 °F - 48.9 °F 42% 29.73 in 10.0 mi SE 4.6 mph - N/A   Clear
5:51 AM 73.4 °F - 48.2 °F 41% 29.97 in 10.0 mi SSE 6.9 mph - N/A   Clear
6:51 AM 75.0 °F - 53.1 °F 46% 29.78 in 10.0 mi SSE 10.4 mph - N/A   Clear
7:51 AM 78.1 °F - 61.0 °F 56% 29.81 in 10.0 mi SSE 16.1 mph - N/A   Clear
8:51 AM 80.1 °F 80.9 °F 60.1 °F 50% 29.81 in 10.0 mi South 16.1 mph - N/A   Clear
9:51 AM 84.0 °F 84.0 °F 60.1 °F 44% 29.82 in 10.0 mi South 12.7 mph - N/A   Clear
10:51 AM 89.1 °F 88.0 °F 57.9 °F 35% 29.79 in 10.0 mi South 15.0 mph - N/A   Clear
11:51 AM 91.9 °F 90.0 °F 55.0 °F 29% 29.78 in 10.0 mi SSE 12.7 mph 20.7 mph N/A   Clear
12:51 PM 93.9 °F 91.7 °F 54.0 °F 26% 29.76 in 10.0 mi ESE 10.4 mph 23.0 mph N/A   Clear
1:51 PM 96.1 °F 93.5 °F 53.1 °F 23% 29.74 in 10.0 mi SSE 15.0 mph 23.0 mph N/A   Clear
2:51 PM 96.1 °F - 50.0 °F 21% 29.73 in 10.0 mi SE 17.3 mph 20.7 mph N/A   Clear
3:51 PM 97.0 °F - 48.0 °F 19% 29.71 in 10.0 mi SE 12.7 mph 20.7 mph N/A   Clear
4:51 PM 97.0 °F - 46.9 °F 18% 29.69 in 10.0 mi SE 13.8 mph 23.0 mph N/A   Clear
5:51 PM 96.1 °F - 46.9 °F 19% 29.68 in 10.0 mi SE 15.0 mph - N/A   Clear
6:51 PM 95.0 °F - 46.0 °F 19% 29.68 in 10.0 mi SE 13.8 mph - N/A   Clear
7:51 PM 91.9 °F - 46.9 °F 21% 29.69 in 10.0 mi SE 12.7 mph - N/A   Clear
8:51 PM 87.1 °F - 48.0 °F 26% 29.73 in 10.0 mi SSE 10.4 mph - N/A   Clear
9:51 PM 84.0 °F - 48.9 °F 29% 29.76 in 10.0 mi SSE 5.8 mph - N/A   Clear
10:51 PM 80.1 °F - 48.0 °F 32% 29.79 in 10.0 mi SSE 6.9 mph - N/A   Clear
11:51 PM 75.9 °F - 48.0 °F 37% 29.81 in 10.0 mi SSW 5.8 mph - N/A   Clear